Raton, NM

4:40 PM MST on December 02, 2016 (GMT -0700)
Raton Municipal-Crews

Weather History for KRTN - August, 2013

Change the Weather History Date:

Monday, August 12, 2013

  Actual Average (KTAD) Record (KTAD)
Temperature  
Mean Temperature 65 °F 72 °F  
Max Temperature 80 °F 86 °F 96 °F (1969)
Min Temperature 55 °F 58 °F 48 °F (2004)
Growing Degree Days 15 (Base 50)    
Moisture  
Dew Point 52 °F    
Average Humidity 60    
Maximum Humidity 80    
Minimum Humidity 43    
Precipitation  
Precipitation 0.00 in 0.08 in 1.70 in (1987)
Sea Level Pressure  
Sea Level Pressure 30.03 in    
Wind  
Wind Speed 6 mph (NE)    
Max Wind Speed 13 mph    
Max Gust Speed 17 mph    
Visibility 10 miles    
Events      
T = Trace of Precipitation, MM = Missing Value Source: NWS Daily Summary

Daily Weather History Graph

Daily Weather History Graph

Search for Another Location

Airport or City:

Trip Planner

Search our weather history database for the weather conditions in past years. The results will help you decide how hot, cold, wet, or windy it might be!

Date:

Astronomy

Aug. 12, 2013 Rise Set
Actual Time 6:13 AM MDT 7:52 PM MDT
Civil Twilight 5:45 AM MDT 8:19 PM MDT
Nautical Twilight 5:11 AM MDT 8:53 PM MDT
Astronomical Twilight 4:36 AM MDT 9:28 PM MDT
Moon 11:55 AM MDT (8/12) 10:58 PM MDT (8/12)
Length of Visible Light 14h 34m
Length of Day
13h 39m
Waxing Crescent, 32% of the Moon is Illuminated
Aug 12
Waxing Crescent
Aug 14
First Quarter
Aug 20
Full
Aug 28
Last Quarter
Sep 5
New

Hourly Weather History & Observations

Time (MDT) Temp. Dew Point Humidity Pressure Visibility Wind Dir Wind Speed Gust Speed Precip Events Conditions
12:53 AM 64.0 °F 50.0 °F 60% 30.06 in 10.0 mi NNE 6.9 mph - N/A   Scattered Clouds
1:53 AM 61.0 °F 48.9 °F 64% 30.06 in 10.0 mi NNW 8.1 mph - N/A   Clear
2:53 AM 59.0 °F 48.9 °F 69% 30.04 in 10.0 mi NE 4.6 mph - N/A   Clear
3:53 AM 55.9 °F 50.0 °F 80% 30.03 in 10.0 mi ENE 5.8 mph - N/A   Clear
4:53 AM 55.9 °F 50.0 °F 80% 30.03 in 10.0 mi Calm Calm - N/A   Clear
5:53 AM 57.0 °F 50.0 °F 77% 30.03 in 10.0 mi Calm Calm - N/A   Clear
6:53 AM 57.9 °F 51.1 °F 78% 30.04 in 10.0 mi Calm Calm - N/A   Clear
7:53 AM 62.1 °F 51.1 °F 67% 30.04 in 10.0 mi NE 10.4 mph - N/A   Clear
8:53 AM 64.9 °F 53.1 °F 65% 30.06 in 10.0 mi ESE 5.8 mph - N/A   Mostly Cloudy
9:53 AM 68.0 °F 51.1 °F 55% 30.06 in 10.0 mi SSE 4.6 mph - N/A   Mostly Cloudy
10:53 AM 71.1 °F 48.9 °F 45% 30.06 in 10.0 mi Calm Calm - N/A   Mostly Cloudy
11:53 AM 73.0 °F 53.1 °F 49% 30.04 in 10.0 mi SSW 8.1 mph - N/A   Scattered Clouds
12:53 PM 73.9 °F 55.9 °F 53% 30.02 in 10.0 mi South 12.7 mph - N/A   Overcast
1:53 PM 73.9 °F 54.0 °F 50% 30.02 in 10.0 mi SW 11.5 mph - 0.00 in   Partly Cloudy
2:53 PM 75.9 °F 52.0 °F 43% 30.01 in 10.0 mi WSW 8.1 mph - N/A   Mostly Cloudy
3:53 PM 75.0 °F 53.1 °F 46% 30.01 in 10.0 mi Variable 6.9 mph 17.3 mph N/A   Mostly Cloudy
4:53 PM 73.9 °F 53.1 °F 48% 30.00 in 10.0 mi NNW 8.1 mph - N/A   Scattered Clouds
5:53 PM 75.9 °F 52.0 °F 43% 29.99 in 10.0 mi North 4.6 mph - N/A   Clear
6:53 PM 73.9 °F 52.0 °F 46% 29.99 in 10.0 mi ESE 5.8 mph - N/A   Clear
7:53 PM 70.0 °F 54.0 °F 57% 30.01 in 10.0 mi ENE 4.6 mph - N/A   Mostly Cloudy
8:53 PM 66.0 °F 53.1 °F 63% 30.02 in 10.0 mi NNW 8.1 mph - N/A   Clear
9:53 PM 64.0 °F 52.0 °F 65% 30.04 in 10.0 mi North 8.1 mph - N/A   Clear
10:53 PM 63.0 °F 51.1 °F 65% 30.04 in 10.0 mi North 8.1 mph - N/A   Partly Cloudy
11:53 PM 60.1 °F 51.1 °F 72% 30.04 in 10.0 mi ENE 6.9 mph - N/A   Clear